Location: Quaker Farms
(41.4276°N, 73.1557°W)
Time: 00:34:33
(UTC+00:00)

Altair - Pass Details

Date: 16 June 2021
Orbit: 1501 x 1682 km, 47.2° (Epoch: 23 July)

Event Time Altitude Azimuth Distance (km) Brightness Sun altitude
Rises 22:59:41 0° 289° (WNW) 4,797 12.1 14.1°
Reaches altitude 10° 23:02:47 10° 291° (WNW) 3,835 13.0 13.6°
Maximum altitude 23:12:38 71° 16° (NNE) 1,729 8.1 11.8°
Drops below altitude 10° 23:22:46 10° 100° (E) 3,937 9.1 10.1°
Sets 23:25:58 0° 103° (ESE) 4,929 9.5 9.5°
